Weather History for Scappoose, OR

Change the Weather History Date:

Thursday, December 13, 2012

  Actual Average Record
Temperature  
Mean Temperature 42 °F -  
Max Temperature 47 °F - 56 °F (2010)
Min Temperature 39 °F - 19 °F (2011)
Degree Days  
Heating Degree Days 22    
Month to date heating degree days 270  
Since 1 July heating degree days 1356  
Cooling Degree Days 0    
Month to date cooling degree days 0  
Year to date cooling degree days 245  
Moisture  
Dew Point 38 °F    
Average Humidity 83    
Maximum Humidity 96    
Minimum Humidity 70    
Precipitation  
Precipitation 0.02 in - 1.46 in (2001)
Month to date precipitation 2.75  
Year to date precipitation 48.62  
Sea Level Pressure  
Sea Level Pressure 29.97 in    
Wind  
Wind Speed 3 mph (SSE)    
Max Wind Speed 10 mph    
Max Gust Speed 12 mph    
Visibility 10 miles    
Events Rain    
T = Trace of Precipitation, MM = Missing Value Source: NWS Daily Summary

Daily Weather History Graph

Daily Weather History Graph

Search for Another Location

Airport:

Trip Planner

Search our weather history database for the weather conditions in past years. The results will help you decide how hot, cold, wet, or windy it might be!

Date:

Astronomy

Dec. 13, 2012 Rise Set
Actual Time 7:44 AM PST 4:27 PM PST
Civil Twilight 7:10 AM PST 5:01 PM PST
Nautical Twilight 6:32 AM PST 5:39 PM PST
Astronomical Twilight 5:56 AM PST 6:15 PM PST
Moon 7:57 AM PST (12/13) 5:17 PM PST (12/13)
Length of Visible Light 9h 51m
Length of Day
8h 42m
New Moon, 0% of the Moon is Illuminated
Dec 13
New Moon
Dec 19
First Quarter
Dec 28
Full
Jan 4
Last Quarter
Jan 11
New

Hourly Weather History & Observations

Time (PST) Temp. Windchill Dew Point Humidity Pressure Visibility Wind Dir Wind Speed Gust Speed Precip Events Conditions
12:53 AM 43.0 °F - 39.9 °F 89% 30.03 in 10.0 mi Calm Calm - N/A   Overcast
1:53 AM 43.0 °F - 41.0 °F 93% 30.03 in 10.0 mi Calm Calm - N/A   Overcast
2:53 AM 42.1 °F - 39.9 °F 92% 30.04 in 10.0 mi Calm Calm - N/A   Overcast
3:34 AM 42.8 °F - 39.2 °F 87% 30.04 in 10.0 mi Calm Calm - N/A   Overcast
3:53 AM 42.1 °F - 39.9 °F 92% 30.04 in 10.0 mi Calm Calm - N/A   Overcast
4:53 AM 42.1 °F - 39.0 °F 89% 30.04 in 10.0 mi Calm Calm - N/A   Overcast
5:36 AM 42.8 °F - 39.2 °F 87% 30.05 in 10.0 mi Calm Calm - N/A   Overcast
5:53 AM 42.1 °F - 39.0 °F 89% 30.04 in 10.0 mi Calm Calm - N/A   Overcast
6:53 AM 42.1 °F - 37.9 °F 85% 30.04 in 10.0 mi Calm Calm - N/A   Overcast
7:04 AM 41.0 °F - 37.4 °F 87% 30.04 in 10.0 mi Calm Calm - N/A   Overcast
7:53 AM 42.1 °F - 37.9 °F 85% 30.05 in 10.0 mi Calm Calm - N/A   Overcast
8:53 AM 42.1 °F - 37.9 °F 85% 30.04 in 10.0 mi Calm Calm - N/A   Overcast
9:53 AM 44.1 °F 41.5 °F 39.9 °F 85% 30.03 in 10.0 mi SE 4.6 mph - 0.01 in   Overcast
10:13 AM 42.8 °F 39.3 °F 37.4 °F 81% 30.03 in 10.0 mi SE 5.8 mph - N/A   Overcast
10:20 AM 42.8 °F 39.3 °F 37.4 °F 81% 30.02 in 10.0 mi SSE 5.8 mph - N/A   Overcast
10:53 AM 45.0 °F 40.1 °F 37.0 °F 74% 30.01 in 10.0 mi SE 9.2 mph - N/A   Overcast
11:53 AM 45.0 °F 41.2 °F 37.0 °F 74% 29.99 in 10.0 mi SE 6.9 mph - N/A   Overcast
12:53 PM 45.0 °F 42.6 °F 36.0 °F 71% 29.96 in 10.0 mi SE 4.6 mph - N/A   Overcast
1:44 PM 46.4 °F 42.9 °F 37.4 °F 71% 29.94 in 10.0 mi SSE 6.9 mph - N/A   Mostly Cloudy
1:53 PM 45.0 °F 42.6 °F 36.0 °F 71% 29.94 in 10.0 mi South 4.6 mph - N/A   Scattered Clouds
5:53 PM 41.0 °F 38.0 °F 37.0 °F 86% 29.88 in 10.0 mi SSE 4.6 mph - N/A   Clear
6:53 PM 39.0 °F 34.8 °F 36.0 °F 89% 29.87 in 10.0 mi SSE 5.8 mph - N/A   Clear
7:27 PM 39.2 °F 35.0 °F 35.6 °F 87% 29.87 in 10.0 mi SE 5.8 mph - N/A   Overcast
7:53 PM 39.9 °F 35.8 °F 36.0 °F 86% 29.86 in 10.0 mi SSE 5.8 mph - N/A   Overcast
8:53 PM 39.9 °F 36.7 °F 36.0 °F 86% 29.86 in 10.0 mi SSE 4.6 mph - N/A   Overcast
10:53 PM 39.0 °F 36.8 °F 35.1 °F 86% 29.86 in 10.0 mi SE 3.5 mph - 0.00 in Rain Light Rain
11:37 PM 39.2 °F 37.0 °F 35.6 °F 87% 29.86 in 8.0 mi SSW 3.5 mph - 0.00 in Rain Light Rain
11:50 PM 39.2 °F - 35.6 °F 87% 29.85 in 8.0 mi Calm Calm - 0.01 in Rain Light Rain
11:53 PM 39.0 °F - 36.0 °F 89% 29.86 in 9.0 mi Calm Calm - 0.01 in Rain Light Rain